Retour au catalogue

STARLINK-4256

ActifCommunicationsVLEO
NORAD 52994·PAYLOAD·🇺🇸 United States

Lancé Jul 7, 2022 depuis Cape Canaveral Space Force Station

Loading…

Prochains Passages (prochaines 24 heures)

TLE

FraisSource: CelesTrak SupGP

Époque: Sep 15, 2026, 01:24 UTC

1 52994C 22076J   26258.05881944  .00040266  00000+0  11896-2 0  2580
2 52994  53.1570 308.8040 0001160  92.4357  70.2622 15.34371115    14

Suivez STARLINK-4256 en temps réel avec AllMySat

Download on the App Store